Weather History for KTUL - January, 2013

Change the Weather History Date:

Saturday, January 12, 2013

  Actual Average Record
Temperature  
Mean Temperature 44 °F 37 °F  
Max Temperature 62 °F 48 °F 74 °F (2000)
Min Temperature 25 °F 27 °F -13 °F (1918)
Degree Days  
Heating Degree Days 21 28  
Month to date heating degree days 294 336  
Since 1 July heating degree days 1546 1764  
Moisture  
Dew Point 28 °F    
Average Humidity 61    
Maximum Humidity 92    
Minimum Humidity 30    
Precipitation  
Precipitation 0.32 in 0.05 in 2.10 in (1916)
Month to date precipitation 0.62 0.63  
Year to date precipitation 0.62 0.63  
Sea Level Pressure  
Sea Level Pressure 29.95 in    
Wind  
Wind Speed 16 mph (North)    
Max Wind Speed 28 mph    
Max Gust Speed 37 mph    
Visibility 9 miles    
Events Rain    
T = Trace of Precipitation, MM = Missing Value Source: NWS Daily Summary

Daily Weather History Graph

Daily Weather History Graph

Search for Another Location

Airport or City:

Trip Planner

Search our weather history database for the weather conditions in past years. The results will help you decide how hot, cold, wet, or windy it might be!

Date:

Astronomy

Jan. 12, 2013 Rise Set
Actual Time 7:34 AM CST 5:29 PM CST
Civil Twilight 7:06 AM CST 5:57 PM CST
Nautical Twilight 6:34 AM CST 6:29 PM CST
Astronomical Twilight 6:03 AM CST 7:00 PM CST
Moon 7:57 AM CST (1/12) 6:56 PM CST (1/12)
Length of Visible Light 10h 51m
Length of Day
9h 55m
New Moon, 1% of the Moon is Illuminated
Jan 12
New Moon
Jan 18
First Quarter
Jan 26
Full
Feb 3
Last Quarter
Feb 10
New

Hourly Weather History & Observations

Time (CST) Temp. Windchill Dew Point Humidity Pressure Visibility Wind Dir Wind Speed Gust Speed Precip Events Conditions
12:53 AM 61.0 °F - 50.0 °F 67% 29.81 in 10.0 mi West 8.1 mph - N/A   Overcast
1:53 AM 60.1 °F - 30.0 °F 32% 29.83 in 10.0 mi NW 9.2 mph - N/A   Overcast
2:53 AM 57.0 °F - 26.1 °F 30% 29.85 in 10.0 mi NW 13.8 mph - N/A   Mostly Cloudy
3:53 AM 55.0 °F - 28.0 °F 35% 29.85 in 10.0 mi NNW 11.5 mph - N/A   Mostly Cloudy
4:53 AM 52.0 °F - 27.0 °F 38% 29.85 in 10.0 mi North 13.8 mph - N/A   Partly Cloudy
5:53 AM 46.0 °F 39.9 °F 33.1 °F 61% 29.88 in 10.0 mi NNW 13.8 mph 24.2 mph N/A   Partly Cloudy
6:53 AM 42.1 °F 33.9 °F 32.0 °F 67% 29.94 in 10.0 mi NNW 17.3 mph - 0.00 in   Overcast
7:53 AM 41.0 °F 32.5 °F 32.0 °F 70% 29.98 in 10.0 mi North 17.3 mph - N/A   Overcast
8:53 AM 39.9 °F 32.1 °F 28.9 °F 65% 30.00 in 10.0 mi North 13.8 mph 23.0 mph N/A   Overcast
9:53 AM 37.9 °F 29.6 °F 28.9 °F 70% 29.98 in 10.0 mi NNE 13.8 mph - 0.00 in   Overcast
10:53 AM 37.0 °F 26.4 °F 26.1 °F 65% 30.00 in 10.0 mi North 20.7 mph 26.5 mph N/A   Overcast
11:53 AM 37.0 °F 27.4 °F 26.1 °F 65% 29.95 in 10.0 mi NNE 17.3 mph 25.3 mph N/A   Overcast
12:53 PM 37.0 °F 27.7 °F 26.1 °F 65% 29.89 in 10.0 mi NNE 16.1 mph 27.6 mph N/A   Overcast
1:53 PM 35.1 °F 26.4 °F 27.0 °F 72% 29.91 in 8.0 mi North 12.7 mph - 0.01 in Rain Light Rain
2:00 PM 33.8 °F 22.5 °F 28.4 °F 81% 29.89 in 3.0 mi North 19.6 mph 25.3 mph 0.01 in Rain Rain
2:10 PM 33.8 °F 24.3 °F 30.2 °F 87% 29.89 in 2.5 mi NNE 13.8 mph 23.0 mph 0.04 in Rain Rain
2:45 PM 32.0 °F 19.8 °F 32.0 °F 100% 29.88 in 3.0 mi North 20.7 mph 27.6 mph 0.11 in Rain Light Rain
2:53 PM 32.0 °F 20.8 °F 30.9 °F 96% 29.94 in 8.0 mi North 17.3 mph 27.6 mph 0.11 in Rain Light Freezing Rain
3:03 PM 32.0 °F 20.8 °F 30.2 °F 93% 29.95 in 3.0 mi North 17.3 mph 25.3 mph 0.01 in Rain Light Freezing Rain
3:07 PM 32.0 °F 22.1 °F 30.2 °F 93% 29.96 in 2.5 mi North 13.8 mph - 0.02 in Rain Light Freezing Rain
3:22 PM 32.0 °F 18.1 °F 30.2 °F 93% 29.88 in 3.0 mi North 27.6 mph 33.4 mph 0.05 in Rain Light Freezing Rain
3:43 PM 32.0 °F 19.2 °F 30.2 °F 93% 29.91 in 10.0 mi NNW 23.0 mph 31.1 mph 0.06 in   Overcast
3:53 PM 30.9 °F 17.2 °F 27.0 °F 85% 29.94 in 10.0 mi North 25.3 mph 33.4 mph 0.06 in   Overcast
4:20 PM 30.2 °F 17.8 °F 26.6 °F 86% 29.94 in 10.0 mi North 19.6 mph 31.1 mph 0.00 in Rain Light Freezing Rain
4:40 PM 30.2 °F 17.8 °F 26.6 °F 86% 29.94 in 10.0 mi North 19.6 mph 32.2 mph 0.05 in   Overcast
4:45 PM 30.2 °F 17.4 °F 26.6 °F 86% 29.95 in 5.0 mi North 20.7 mph 28.8 mph 0.08 in Rain Light Freezing Rain
4:53 PM 30.9 °F 18.7 °F 28.0 °F 89% 29.94 in 6.0 mi North 19.6 mph 27.6 mph 0.09 in Rain Light Freezing Rain
5:53 PM 30.0 °F 17.9 °F 27.0 °F 88% 29.96 in 10.0 mi North 18.4 mph 25.3 mph 0.03 in Rain Light Freezing Rain
6:03 PM 30.2 °F 18.5 °F 26.6 °F 86% 29.97 in 7.0 mi North 17.3 mph 25.3 mph 0.00 in Rain Light Freezing Rain
6:34 PM 30.2 °F 18.9 °F 26.6 °F 86% 29.98 in 10.0 mi North 16.1 mph - 0.01 in Rain Light Freezing Rain
6:53 PM 28.9 °F 18.6 °F 26.1 °F 89% 30.00 in 10.0 mi North 12.7 mph 21.9 mph 0.01 in Rain Light Freezing Rain
7:23 PM 28.4 °F 17.5 °F 26.6 °F 93% 30.00 in 10.0 mi North 13.8 mph 21.9 mph 0.01 in   Overcast
7:43 PM 28.4 °F 16.2 °F 24.8 °F 86% 30.00 in 10.0 mi North 17.3 mph - 0.01 in   Overcast
7:53 PM 28.0 °F 15.3 °F 24.1 °F 85% 30.02 in 10.0 mi North 18.4 mph - 0.01 in   Overcast
8:17 PM 28.4 °F 17.5 °F 24.8 °F 86% 29.99 in 10.0 mi North 13.8 mph - N/A   Overcast
8:53 PM 28.0 °F 17.0 °F 21.0 °F 75% 30.02 in 10.0 mi North 13.8 mph 24.2 mph N/A   Overcast
9:35 PM 28.4 °F 19.1 °F 21.2 °F 74% 30.04 in 10.0 mi North 10.4 mph - N/A   Overcast
9:53 PM 28.0 °F 16.5 °F 21.9 °F 78% 30.04 in 10.0 mi North 15.0 mph - N/A   Overcast
10:53 PM 27.0 °F 14.3 °F 21.0 °F 78% 30.04 in 10.0 mi NNW 17.3 mph 21.9 mph N/A   Mostly Cloudy
11:53 PM 25.0 °F 12.6 °F 19.9 °F 81% 30.09 in 10.0 mi North 15.0 mph - N/A   Partly Cloudy